�������l�o���
Date,Time,MP-1(��Sv/h),MP-2(��Sv/h),MP-3(��Sv/h),MP-4(��Sv/h),MP-5(��Sv/h),MP-6(��Sv/h),MP-7(��Sv/h),MP-8(��Sv/h),����,����(m/s),���J
2016/10/20,00:00,1.169,1.958,1.359,2.163,1.525,0.608,1.078,0.992,��,8.3,��
2016/10/20,00:10,1.169,1.959,1.358,2.165,1.527,0.608,1.077,0.992,��,7.2,��
2016/10/20,00:20,1.168,1.956,1.358,2.164,1.530,0.606,1.079,0.991,��,6.4,��
2016/10/20,00:30,1.168,1.956,1.358,2.164,1.528,0.608,1.079,0.990,��,5.8,��
2016/10/20,00:40,1.169,1.957,1.360,2.165,1.527,0.606,1.078,0.990,��쐼,4.7,��
2016/10/20,00:50,1.170,1.958,1.356,2.164,1.525,0.606,1.079,0.991,��쐼,4.4,��
2016/10/20,01:00,1.170,1.957,1.356,2.162,1.524,0.605,1.081,0.991,��쐼,4.9,��
2016/10/20,01:10,1.170,1.959,1.357,2.164,1.528,0.606,1.077,0.992,��쐼,4.5,��
2016/10/20,01:20,1.167,1.958,1.357,2.161,1.526,0.607,1.080,0.992,��쐼,5.2,��
2016/10/20,01:30,1.170,1.957,1.357,2.163,1.524,0.606,1.078,0.994,��,4.2,��
2016/10/20,01:40,1.171,1.953,1.357,2.161,1.526,0.606,1.079,0.992,��쐼,3.1,��
2016/10/20,01:50,1.171,1.958,1.357,2.162,1.527,0.607,1.077,0.992,��쐼,3.6,��
2016/10/20,02:00,1.171,1.954,1.359,2.162,1.527,0.607,1.077,0.993,��쐼,3.5,��
2016/10/20,02:10,1.169,1.953,1.357,2.163,1.526,0.607,1.078,0.991,��쐼,3.6,��
2016/10/20,02:20,1.168,1.956,1.358,2.162,1.525,0.606,1.078,0.990,�쐼,1.8,��
2016/10/20,02:30,1.169,1.956,1.356,2.161,1.527,0.607,1.079,0.992,��,2.2,��
2016/10/20,02:40,1.169,1.958,1.357,2.160,1.526,0.607,1.077,0.992,��,2.2,��
2016/10/20,02:50,1.170,1.956,1.359,2.161,1.527,0.608,1.079,0.991,���쐼,2.3,��
2016/10/20,03:00,1.168,1.955,1.357,2.159,1.527,0.606,1.078,0.990,���쐼,2.5,��
2016/10/20,03:10,1.169,1.955,1.357,2.161,1.523,0.606,1.077,0.990,�쐼,1.5,��
2016/10/20,03:20,1.171,1.953,1.356,2.163,1.527,0.606,1.080,0.992,���쐼,1.7,��
2016/10/20,03:30,1.169,1.953,1.357,2.160,1.526,0.606,1.078,0.989,���쐼,2.9,��
2016/10/20,03:40,1.169,1.957,1.357,2.162,1.527,0.607,1.075,0.990,��쐼,1.9,��
2016/10/20,03:50,1.168,1.956,1.356,2.162,1.526,0.606,1.079,0.992,��,1.4,��
2016/10/20,04:00,1.169,1.955,1.358,2.160,1.527,0.606,1.079,0.992,��,2.7,��
2016/10/20,04:10,1.167,1.959,1.359,2.159,1.524,0.606,1.079,0.991,��,3.0,��
2016/10/20,04:20,1.168,1.954,1.357,2.160,1.526,0.607,1.079,0.992,��,3.1,��
2016/10/20,04:30,1.167,1.957,1.358,2.160,1.524,0.607,1.079,0.992,��,2.8,��
2016/10/20,04:40,1.169,1.955,1.356,2.162,1.522,0.607,1.077,0.991,��쐼,2.4,��
2016/10/20,04:50,1.168,1.954,1.357,2.162,1.525,0.607,1.078,0.990,���쐼,0.8,��
2016/10/20,05:00,1.169,1.955,1.354,2.159,1.523,0.605,1.079,0.991,�k�k��,1.8,��
2016/10/20,05:10,1.169,1.954,1.358,2.162,1.525,0.606,1.079,0.992,�k�k��,1.9,��
2016/10/20,05:20,1.170,1.955,1.355,2.161,1.522,0.603,1.079,0.991,�k��,1.9,��
2016/10/20,05:30,1.168,1.953,1.357,2.163,1.524,0.607,1.079,0.992,�k��,1.8,��
2016/10/20,05:40,1.168,1.953,1.356,2.162,1.523,0.605,1.078,0.992,��,2.2,��
2016/10/20,05:50,1.169,1.952,1.356,2.161,1.525,0.604,1.078,0.991,���k��,2.2,��
2016/10/20,06:00,1.169,1.954,1.355,2.164,1.523,0.605,1.078,0.990,��,2.2,��
2016/10/20,06:10,1.169,1.955,1.354,2.161,1.522,0.605,1.078,0.992,��,3.3,��
2016/10/20,06:20,1.169,1.955,1.356,2.160,1.524,0.605,1.078,0.991,��,3.8,��
2016/10/20,06:30,1.169,1.957,1.356,2.161,1.525,0.605,1.078,0.993,���k��,4.4,��
2016/10/20,06:40,1.167,1.957,1.357,2.159,1.523,0.605,1.079,0.992,��,3.6,��
2016/10/20,06:50,1.169,1.955,1.359,2.162,1.523,0.604,1.079,0.991,���k��,4.7,��
2016/10/20,07:00,1.170,1.954,1.357,2.160,1.524,0.605,1.078,0.993,��,4.5,��
2016/10/20,07:10,1.170,1.956,1.356,2.163,1.522,0.606,1.078,0.992,��,3.5,��
2016/10/20,07:20,1.171,1.958,1.358,2.161,1.525,0.605,1.078,0.991,��,2.9,��
2016/10/20,07:30,1.169,1.955,1.359,2.161,1.525,0.606,1.080,0.993,���쐼,2.4,��
2016/10/20,07:40,1.169,1.953,1.360,2.163,1.524,0.606,1.079,0.993,�k��,1.9,��
2016/10/20,07:50,1.171,1.953,1.359,2.164,1.526,0.607,1.082,0.995,�k��,1.5,��
2016/10/20,08:00,1.170,1.954,1.360,2.164,1.527,0.604,1.082,0.994,�k�k��,1.3,��
2016/10/20,08:10,1.169,1.954,1.359,2.167,1.526,0.607,1.080,0.992,�k,0.9,��
2016/10/20,08:20,1.170,1.955,1.361,2.166,1.528,0.606,1.081,0.994,�k�k��,1.0,��
2016/10/20,08:30,1.168,1.954,1.360,2.167,1.526,0.604,1.080,0.994,�k�k��,1.4,��
2016/10/20,08:40,1.168,1.958,1.362,2.166,1.529,0.604,1.079,0.994,�k,3.0,��
2016/10/20,08:50,1.168,1.958,1.360,2.169,1.529,0.603,1.081,0.994,�k��,2.7,��
2016/10/20,09:00,1.169,1.959,1.360,2.168,1.527,0.606,1.077,0.994,�k��,2.9,��
2016/10/20,09:10,1.174,1.951,1.358,2.167,1.527,0.604,1.079,0.995,�k��,3.8,��
2016/10/20,09:20,1.168,1.955,1.361,2.168,1.521,0.607,1.081,0.993,�k�k��,3.8,��
2016/10/20,09:30,1.171,1.957,1.361,2.168,1.529,0.605,1.081,0.995,�k��,3.4,��
2016/10/20,09:40,1.172,1.954,1.360,2.170,1.527,0.602,1.081,0.993,���k��,3.2,��
2016/10/20,09:50,1.169,1.955,1.359,2.168,1.528,0.602,1.080,0.993,��,2.0,��
2016/10/20,10:00,1.172,1.951,1.356,2.166,1.532,0.602,1.080,0.990,���k��,2.9,��
2016/10/20,10:10,1.168,1.957,1.357,2.168,1.531,0.603,1.080,0.990,�k��,2.6,��
2016/10/20,10:20,1.170,1.958,1.358,2.170,1.530,0.604,1.080,0.991,�k��,3.8,��
2016/10/20,10:30,1.171,1.959,1.359,2.167,1.533,0.605,1.081,0.992,�k��,3.4,��
2016/10/20,10:40,1.171,1.953,1.362,2.171,1.537,0.606,1.079,0.991,���k��,2.1,��
2016/10/20,10:50,1.175,1.956,1.360,2.176,1.533,0.603,1.080,0.992,���k��,3.4,��
2016/10/20,11:00,1.174,1.960,1.362,2.173,1.535,0.605,1.081,0.993,��,3.5,��
2016/10/20,11:10,1.176,1.961,1.359,2.172,1.536,0.605,1.083,0.991,��,3.1,��
2016/10/20,11:20,1.171,1.963,1.362,2.173,1.531,0.605,1.082,0.993,��,2.9,��
2016/10/20,11:30,1.173,1.961,1.361,2.173,1.533,0.604,1.082,0.992,��,3.1,��
2016/10/20,11:40,1.175,1.962,1.364,2.173,1.537,0.604,1.083,0.992,���쓌,3.0,��
2016/10/20,11:50,1.177,1.957,1.366,2.175,1.535,0.605,1.081,0.992,��,3.1,��
2016/10/20,12:00,1.177,1.955,1.364,2.173,1.534,0.604,1.081,0.991,��,4.9,��
2016/10/20,12:10,1.173,1.956,1.366,2.176,1.534,0.605,1.082,0.992,�k,2.8,��
2016/10/20,12:20,1.176,1.958,1.364,2.174,1.536,0.606,1.084,0.994,�k��,5.3,��
2016/10/20,12:30,1.174,1.957,1.352,2.176,1.537,0.607,1.082,0.993,�k��,4.7,��
2016/10/20,12:40,1.176,1.956,1.349,2.173,1.538,0.605,1.084,0.996,���k��,3.8,��
2016/10/20,12:50,1.174,1.953,1.353,2.176,1.537,0.605,1.082,0.994,�k��,2.9,��
2016/10/20,13:00,1.177,1.958,1.348,2.176,1.538,0.607,1.082,0.993,�k�k��,2.3,��
2016/10/20,13:10,1.174,1.959,1.350,2.172,1.537,0.605,1.083,0.994,�k�k��,2.3,��
2016/10/20,13:20,1.174,1.961,1.350,2.177,1.539,0.605,1.083,0.994,��,1.9,��
2016/10/20,13:30,1.177,1.961,1.349,2.173,1.540,0.608,1.082,0.993,���쓌,3.1,��
2016/10/20,13:40,1.174,1.960,1.353,2.178,1.537,0.609,1.082,0.992,�쓌,0.9,��
2016/10/20,13:50,1.174,1.966,1.349,2.176,1.540,0.610,1.082,0.992,��쓌,1.2,��
2016/10/20,14:00,1.175,1.966,1.345,2.176,1.541,0.612,1.084,0.993,��,3.5,��
2016/10/20,14:10,1.175,1.968,1.350,2.178,1.541,0.611,1.084,0.992,���k��,4.9,��
2016/10/20,14:20,1.176,1.970,1.349,2.179,1.537,0.611,1.082,0.995,��,6.9,��
2016/10/20,14:30,1.178,1.963,1.353,2.176,1.540,0.611,1.084,0.993,��,6.6,��
2016/10/20,14:40,1.175,1.963,1.354,2.178,1.540,0.611,1.084,0.995,��,5.8,��
2016/10/20,14:50,1.174,1.966,1.356,2.180,1.539,0.610,1.082,0.991,��,8.2,��
2016/10/20,15:00,1.175,1.961,1.354,2.181,1.539,0.611,1.084,0.995,��,6.9,��
2016/10/20,15:10,1.178,1.966,1.356,2.180,1.539,0.611,1.081,0.993,��,6.4,��
2016/10/20,15:20,1.177,1.967,1.358,2.176,1.539,0.613,1.084,0.993,��,7.7,��
2016/10/20,15:30,1.181,1.969,1.359,2.179,1.540,0.611,1.081,0.994,��,7.7,��
2016/10/20,15:40,1.181,1.967,1.356,2.180,1.540,0.611,1.082,0.994,��,6.9,��
2016/10/20,15:50,1.178,1.967,1.357,2.181,1.540,0.613,1.082,0.992,��,4.7,��
2016/10/20,16:00,1.180,1.964,1.356,2.178,1.538,0.614,1.084,0.994,��,3.8,��
2016/10/20,16:10,1.178,1.970,1.355,2.180,1.539,0.614,1.083,0.993,��,1.6,��
2016/10/20,16:20,1.177,1.968,1.357,2.180,1.540,0.614,1.083,0.994,�k��,2.7,��
2016/10/20,16:30,1.179,1.968,1.354,2.178,1.542,0.615,1.082,0.994,�k��,4.2,��
2016/10/20,16:40,1.177,1.972,1.356,2.180,1.541,0.614,1.081,0.995,�k�k��,6.3,��
2016/10/20,16:50,1.177,1.973,1.351,2.181,1.540,0.613,1.085,0.993,�k��,3.8,��
2016/10/20,17:00,1.177,1.972,1.353,2.179,1.540,0.613,1.083,0.996,�k��,2.7,��
2016/10/20,17:10,1.174,1.972,1.354,2.179,1.544,0.615,1.082,0.995,�k��,3.1,��
2016/10/20,17:20,1.174,1.973,1.357,2.181,1.541,0.614,1.082,0.996,���쐼,1.3,��
2016/10/20,17:30,1.177,1.969,1.353,2.179,1.539,0.614,1.085,0.996,���쐼,0.9,��
2016/10/20,17:40,1.175,1.972,1.358,2.181,1.540,0.614,1.083,0.995,���쐼,2.8,��
2016/10/20,17:50,1.176,1.971,1.358,2.180,1.541,0.613,1.083,0.996,���쐼,3.9,��
2016/10/20,18:00,1.174,1.971,1.357,2.179,1.540,0.613,1.084,0.995,���쐼,4.1,��
2016/10/20,18:10,1.176,1.971,1.356,2.181,1.541,0.612,1.083,0.996,��,4.7,��
2016/10/20,18:20,1.175,1.972,1.353,2.177,1.539,0.611,1.083,0.996,���쐼,6.3,��
2016/10/20,18:30,1.174,1.971,1.360,2.181,1.540,0.614,1.084,0.997,��,6.3,��
2016/10/20,18:40,1.175,1.970,1.354,2.179,1.541,0.615,1.083,0.996,��,4.7,��
2016/10/20,18:50,1.175,1.971,1.357,2.179,1.539,0.615,1.084,0.992,��,4.2,��
2016/10/20,19:00,1.175,1.969,1.354,2.179,1.543,0.612,1.083,0.994,��,4.1,��
2016/10/20,19:10,1.175,1.971,1.353,2.178,1.541,0.612,1.083,0.995,��,3.0,��
2016/10/20,19:20,1.174,1.969,1.356,2.174,1.539,0.613,1.082,0.993,���k��,3.5,��
2016/10/20,19:30,1.176,1.972,1.352,2.175,1.539,0.615,1.083,0.994,��,3.4,��
2016/10/20,19:40,1.173,1.967,1.354,2.174,1.538,0.612,1.083,0.994,��,3.1,��
2016/10/20,19:50,1.173,1.967,1.352,2.175,1.539,0.612,1.083,0.994,��,4.1,��
2016/10/20,20:00,1.172,1.966,1.354,2.179,1.536,0.612,1.087,0.995,��,5.2,��
2016/10/20,20:10,1.174,1.969,1.351,2.177,1.535,0.613,1.082,0.996,���k��,6.7,��
2016/10/20,20:20,1.172,1.968,1.354,2.176,1.539,0.611,1.083,0.995,���k��,5.3,��
2016/10/20,20:30,1.175,1.970,1.353,2.180,1.539,0.613,1.082,0.996,�k��,3.1,��
2016/10/20,20:40,1.174,1.968,1.354,2.177,1.538,0.611,1.084,0.996,��,2.7,��
2016/10/20,20:50,1.173,1.967,1.353,2.175,1.537,0.612,1.082,0.993,��,2.5,��
2016/10/20,21:00,1.171,1.968,1.355,2.174,1.536,0.612,1.082,0.995,��,2.9,��
2016/10/20,21:10,1.173,1.965,1.351,2.177,1.537,0.611,1.081,0.995,��,3.4,��
2016/10/20,21:20,1.172,1.966,1.349,2.173,1.539,0.612,1.082,0.995,���k��,4.6,��
2016/10/20,21:30,1.171,1.965,1.350,2.178,1.536,0.610,1.081,0.995,��,4.9,��
2016/10/20,21:40,1.171,1.969,1.351,2.177,1.537,0.610,1.083,0.994,���k��,5.6,��
2016/10/20,21:50,1.171,1.966,1.354,2.175,1.537,0.610,1.083,0.995,���k��,6.6,��
2016/10/20,22:00,1.171,1.966,1.354,2.176,1.536,0.611,1.083,0.994,���k��,7.7,��
2016/10/20,22:10,1.171,1.969,1.354,2.174,1.536,0.612,1.081,0.994,���k��,8.3,��
2016/10/20,22:20,1.170,1.966,1.354,2.176,1.539,0.611,1.082,0.995,��,8.6,��
2016/10/20,22:30,1.171,1.968,1.352,2.177,1.537,0.611,1.082,0.993,��,7.4,��
2016/10/20,22:40,1.173,1.970,1.352,2.176,1.539,0.611,1.080,0.993,���k��,8.0,��
2016/10/20,22:50,1.171,1.967,1.351,2.180,1.541,0.611,1.080,0.994,���k��,8.0,��
2016/10/20,23:00,1.172,1.970,1.352,2.174,1.538,0.609,1.080,0.994,���k��,7.4,��
2016/10/20,23:10,1.174,1.969,1.353,2.177,1.536,0.610,1.078,0.994,���k��,8.0,��
2016/10/20,23:20,1.172,1.969,1.352,2.179,1.537,0.608,1.080,0.995,���k��,7.7,��
2016/10/20,23:30,1.172,1.968,1.352,2.179,1.534,0.611,1.080,0.994,���k��,7.7,��
2016/10/20,23:40,1.172,1.967,1.350,2.177,1.538,0.609,1.078,0.993,���k��,7.7,��
2016/10/20,23:50,1.173,1.972,1.353,2.179,1.536,0.609,1.079,0.993,��,7.7,��
